World > North America > United States > Wyoming > Cheyenne   City of Cheyenne, WY

Cheyenne, WY Hourly Weather Updates

Feedback E-mail the Weather

Quick Clicks

Cheyenne, WY Weather Maps

°F °C°F °C
Cheyenne Weather Map
UTC Time: 4/13/2024, 01:03
Your Time:

Cheyenne, WY Regional Weather

Expires:202404130100;;641912
ASUS45 KCYS 130010
RWRWY 

WYOMING REGIONAL WEATHER ROUNDUP
NATIONAL WEATHER SERVICE CHEYENNE WY
600 PM MDT FRI APR 12 2024

NOTE:  "FAIR" INDICATES FEW OR NO CLOUDS BELOW 12,000 FEET
WITH NO SIGNIFICANT WEATHER AND/OR OBSTRUCTIONS TO VISIBILITY.


WYZ021-027>030-104>119-130100-
...SOUTHERN WYOMING...
  
CITY           SKY/WX    TMP DP  RH WIND       PRES   REMARKS
EVANSTON       FAIR      64  19  17 S17       29.98S                  
6HR MIN TEMP:  63; 6HR MAX TEMP:  69;                                

KEMMERER       FAIR      63  10  13 SW16      29.99F                  
FORT BRIDGER   FAIR      67  12  12 S14G21    30.01S                  
ROCK SPRINGS   FAIR      66  17  15 S23G33    29.98S                  
6HR MIN TEMP:  65; 6HR MAX TEMP:  71;                                

DIXON          PTSUNNY   66  22  18 SE13G23   30.05R                  
RAWLINS        FAIR      65  16  15 S16G25    30.01S                  
6HR MIN TEMP:  65; 6HR MAX TEMP:  71;                                

SARATOGA       FAIR      64  14  14 S10G20    30.05S                  
LARAMIE        FAIR      64  15  15 SW15G26   30.07R                  
6HR MIN TEMP:  61; 6HR MAX TEMP:  68;                                

CHEYENNE       FAIR      67  17  14 SW10      30.01S                  
6HR MIN TEMP:  20; 6HR MAX TEMP:  73;                                

TORRINGTON     FAIR      71  29  21 SE10      29.90S                  
6HR MIN TEMP:  65; 6HR MAX TEMP:  78;                                

PINE BLUFFS      N/A     70  16  12 SW10      29.97S                  

$$
  

SKY/WX - Weather  TMP - Temperature  DP - Dew Point  RH - Humidity
WIND - Wind Direction/Speed PRES - Barometric Pressure VSB - Visibility
WCI - Wind Chill Index E13G22 Wind - East Wind 13 mph/Gusts of 22 mph

Trending Headlines

Trending Entertainment Headlines

Cheyenne Radar Loop

Use the map search tool if you want to place a location marker on the radar map...

Cheyenne Quick Facts

National Two Day Weather Forecast


E-mail the Cheyenne Weather Forecast

Voice your opinion or tell us about page issues...